Weather History for Baker, MT

Change the Weather History Date:

Saturday, November 17, 2012

  Actual Average Record
Temperature  
Mean Temperature 44 °F -  
Max Temperature 55 °F 14 °F 64 °F (2001)
Min Temperature 33 °F 15 °F 0 °F (2014)
Degree Days  
Heating Degree Days 21    
Moisture  
Dew Point 28 °F    
Average Humidity 63    
Maximum Humidity 79    
Minimum Humidity 37    
Precipitation  
Precipitation 0.00 in - - ()
Sea Level Pressure  
Sea Level Pressure 30.01 in    
Wind  
Wind Speed 4 mph (SSE)    
Max Wind Speed 17 mph    
Max Gust Speed -    
Visibility 10 miles    
Events      
Averages and records for this station are not official NWS values.
T = Trace of Precipitation, MM = Missing Value Source: NWS Daily Summary

Daily Weather History Graph

Daily Weather History Graph

Search for Another Location

Airport:

Trip Planner

Search our weather history database for the weather conditions in past years. The results will help you decide how hot, cold, wet, or windy it might be!

Date:

Astronomy

Nov. 17, 2012 Rise Set
Actual Time 7:02 AM MST 4:21 PM MST
Civil Twilight 6:29 AM MST 4:54 PM MST
Nautical Twilight 5:52 AM MST 5:31 PM MST
Astronomical Twilight 5:16 AM MST 6:06 PM MST
Moon 10:48 AM MST (11/17) 8:35 PM MST (11/17)
Length of Visible Light 10h 25m
Length of Day
9h 19m
Waxing Crescent, 21% of the Moon is Illuminated
Nov 17
Waxing Crescent
Nov 20
First Quarter
Nov 28
Full
Dec 6
Last Quarter
Dec 13
New

Hourly Weather History & Observations

Time (MST) Temp. Windchill Dew Point Humidity Pressure Visibility Wind Dir Wind Speed Gust Speed Precip Events Conditions
12:51 AM 36.0 °F - 26.1 °F 67% 29.99 in 10.0 mi Calm Calm - N/A   Mostly Cloudy
1:51 AM 33.1 °F 27.7 °F 27.0 °F 78% 30.00 in 10.0 mi NNW 5.8 mph - N/A   Scattered Clouds
2:51 AM 35.1 °F - 27.0 °F 72% 29.99 in 10.0 mi Calm Calm - N/A   Overcast
3:51 AM 35.1 °F 32.2 °F 27.0 °F 72% 30.02 in 10.0 mi NW 3.5 mph - N/A   Overcast
4:51 AM 35.1 °F 31.0 °F 27.0 °F 72% 30.05 in 10.0 mi South 4.6 mph - N/A   Overcast
5:51 AM 34.0 °F 28.0 °F 28.0 °F 79% 30.06 in 10.0 mi East 6.9 mph - N/A   Overcast
6:51 AM 36.0 °F 28.0 °F 27.0 °F 70% 30.05 in 10.0 mi SE 11.5 mph - N/A   Overcast
7:51 AM 37.9 °F 32.1 °F 27.0 °F 65% 30.06 in 10.0 mi WNW 8.1 mph - N/A   Overcast
9:51 AM 42.1 °F - 28.0 °F 58% 30.07 in 10.0 mi Calm Calm - N/A   Scattered Clouds
10:51 AM 48.9 °F - 28.0 °F 44% 30.06 in 10.0 mi Calm Calm - N/A   Clear
11:51 AM 52.0 °F - 28.9 °F 41% 30.03 in 10.0 mi WNW 8.1 mph - N/A   Clear
12:51 PM 53.1 °F - 30.0 °F 41% 30.01 in 10.0 mi WNW 4.6 mph - N/A   Clear
1:51 PM 55.0 °F - 28.9 °F 37% 30.00 in 10.0 mi WNW 8.1 mph - N/A   Clear
2:51 PM 55.0 °F - 30.0 °F 38% 29.99 in 10.0 mi Calm Calm - N/A   Clear
3:51 PM 51.1 °F - 30.9 °F 46% 30.00 in 10.0 mi Calm Calm - N/A   Clear
4:51 PM 39.9 °F 35.8 °F 30.0 °F 68% 30.01 in 10.0 mi SSE 5.8 mph - N/A   Clear
5:51 PM 37.0 °F 33.3 °F 28.9 °F 73% 30.01 in 10.0 mi SSE 4.6 mph - N/A   Clear
6:51 PM 35.1 °F 31.0 °F 28.0 °F 76% 30.01 in 10.0 mi ESE 4.6 mph - N/A   Clear
7:51 PM 34.0 °F 28.0 °F 28.0 °F 79% 29.99 in 10.0 mi SE 6.9 mph - N/A   Clear
8:51 PM 34.0 °F 27.2 °F 27.0 °F 75% 29.99 in 10.0 mi SE 8.1 mph - N/A   Clear
9:51 PM 33.1 °F 26.1 °F 26.1 °F 75% 29.96 in 10.0 mi SE 8.1 mph - N/A   Clear
10:51 PM 37.0 °F 27.4 °F 25.0 °F 62% 29.93 in 10.0 mi SSE 17.3 mph - N/A   Clear
11:51 PM 33.1 °F 26.9 °F 24.1 °F 70% 29.92 in 10.0 mi ESE 6.9 mph - N/A   Clear